sat.trackr.live / text

‹ back to catalog

STARLINK-35080

NORAD 65437 · 2025-194D

PAYLOAD ACTIVE UNKNOWN

§ Identity

Operator
Country
US
Launch date
2025-09-03
Launch site
AFWTR
Launch vehicle
Mass (kg)
RCS (m²)

Purposes: comms

External: N2YO · Heavens-Above · Gunter

§ Orbital elements

Epoch: 2026-05-25T03:22:19.048800Z

Period
95.64 min
Inclination
97.4483°
Eccentricity
0.0001753
Mean motion
15.05660979 rev/d
Perigee alt
548.3 km
Apogee alt
550.7 km
Semi-major
6,927.6 km
B*
3.0824e-4
RAAN
359.4024°
Arg perigee
87.1982°
Mean anomaly
272.9446°
Rev number
4,115

§ Raw data

STARLINK-350801 65437U 25194D   26145.14049825  .00004393  00000+0  30824-3 0  99952 65437  97.4483 359.4024 0001753  87.1982 272.9446 15.05660979 41153

JSON: /api/v1/satellites/65437 · /tle

For live sub-satellite position, see the globe view (requires WebGL).

§ Visibility from observer

Set your observer location to see the next 7 days of passes ≥ 10°. The values pass through the URL so the page stays shareable.

No JS? Fill the form by hand. The geolocation button needs JavaScript.